Swansboro, NC

1:53 PM EDT on October 01, 2016 (GMT -0400)
Bogue McAlf

Weather History for KNJM - November, 2012

Change the Weather History Date:

Saturday, November 3, 2012

  Actual Average (KNKT) Record (KNKT)
Temperature  
Mean Temperature 47 °F -  
Max Temperature 57 °F 67 °F 81 °F (2001)
Min Temperature 37 °F 45 °F 32 °F (2014)
Degree Days  
Heating Degree Days 18    
Moisture  
Dew Point 36 °F    
Average Humidity 70    
Maximum Humidity 93    
Minimum Humidity 39    
Precipitation  
Precipitation 0.00 in - - ()
Sea Level Pressure  
Sea Level Pressure 30.06 in    
Wind  
Wind Speed 6 mph (NW)    
Max Wind Speed 12 mph    
Max Gust Speed 17 mph    
Visibility 10 miles    
Events      
Averages and records for this station are not official NWS values.
T = Trace of Precipitation, MM = Missing Value Source: NWS Daily Summary

Daily Weather History Graph

Daily Weather History Graph

Search for Another Location

Airport or City:

Trip Planner

Search our weather history database for the weather conditions in past years. The results will help you decide how hot, cold, wet, or windy it might be!

Date:

Astronomy

Nov. 03, 2012 Rise Set
Actual Time 7:30 AM EDT 6:11 PM EDT
Civil Twilight 7:04 AM EDT 6:38 PM EDT
Nautical Twilight 6:34 AM EDT 7:08 PM EDT
Astronomical Twilight 6:05 AM EDT 7:37 PM EDT
Moon 9:54 PM EDT (11/3) 11:29 AM EDT (11/3)
Length of Visible Light 11h 33m
Length of Day
10h 41m
Waning Gibbous, 80% of the Moon is Illuminated
Nov 3
Waning Gibbous
Nov 6
Last Quarter
Nov 13
New
Nov 20
First Quarter
Nov 28
Full

Hourly Weather History & Observations

Time (EDT) Temp. Windchill Dew Point Humidity Pressure Visibility Wind Dir Wind Speed Gust Speed Precip Events Conditions
2:57 AM 41.0 °F 37.1 °F 39.0 °F 93% 29.99 in 10.0 mi NNW 5.8 mph - N/A   Clear
3:57 AM 41.0 °F 36.4 °F 37.9 °F 89% 29.99 in 10.0 mi NW 6.9 mph - N/A   Clear
4:57 AM 39.9 °F 35.8 °F 35.1 °F 83% 30.00 in 10.0 mi NW 5.8 mph - N/A   Unknown
5:57 AM 39.0 °F 34.8 °F 33.1 °F 79% 30.01 in 10.0 mi NW 5.8 mph - N/A   Clear
6:57 AM 37.9 °F 33.5 °F 33.1 °F 83% 30.04 in 10.0 mi NNW 5.8 mph - N/A   Clear
7:57 AM 39.0 °F 34.0 °F 33.1 °F 79% 30.06 in 10.0 mi NNW 6.9 mph - N/A   Unknown
8:57 AM 43.0 °F 40.3 °F 36.0 °F 76% 30.08 in 8.0 mi WNW 4.6 mph - N/A   Clear
9:57 AM 46.9 °F - 37.9 °F 71% 30.09 in 10.0 mi WNW 4.6 mph - N/A   Clear
10:57 AM 48.9 °F - 37.0 °F 64% 30.10 in 10.0 mi WNW 6.9 mph - N/A   Clear
11:57 AM 53.1 °F - 33.1 °F 47% 30.09 in 10.0 mi NNW 11.5 mph 17.3 mph N/A   Clear
12:57 PM 54.0 °F - 33.1 °F 45% 30.07 in 10.0 mi WNW 10.4 mph - N/A   Clear
1:57 PM 55.9 °F - 34.0 °F 44% 30.05 in 10.0 mi West 9.2 mph - N/A   Clear
2:57 PM 57.0 °F - 33.1 °F 40% 30.05 in 10.0 mi NNW 11.5 mph - N/A   Clear
3:57 PM 57.9 °F - 33.1 °F 39% 30.05 in 10.0 mi WNW 9.2 mph - N/A   Clear
4:57 PM 57.0 °F - 34.0 °F 42% 30.06 in 10.0 mi WNW 8.1 mph - N/A   Clear
5:57 PM 53.1 °F - 37.0 °F 55% 30.06 in 10.0 mi Calm Calm - N/A   Clear
6:57 PM 46.9 °F - 37.9 °F 71% 30.08 in 10.0 mi Calm Calm - N/A   Clear
7:57 PM 43.0 °F - 37.9 °F 82% 30.09 in 10.0 mi Calm Calm - N/A   Clear
8:57 PM 42.1 °F - 37.9 °F 85% 30.09 in 10.0 mi Calm Calm - N/A   Clear
9:57 PM 42.1 °F - 39.0 °F 89% 30.10 in 10.0 mi Calm Calm - N/A   Clear
10:57 PM 41.0 °F - 37.9 °F 89% 30.10 in 10.0 mi Calm Calm - N/A   Clear
11:57 PM 39.9 °F - 37.0 °F 89% 30.10 in 10.0 mi Calm Calm - N/A   Unknown